When you browse on this site, cookies collect data to enhance your experience and personalize the content and advertising you see.
Visit our Privacy Policy to learn more. By continuing to use the site, you agree to this use of cookies and data.
  • In Latvia
  • List of Countries
  • For 7 days
  • Water Temperature
  • Weather Map
  • Weather Widgets
  • user-avatar
    Login

    Hourly Weather Zaranj

    Today, 18 February, Tuesday

    Time Temperature Precipitation Wind Pressure Humidity
    00:00 +13°C° 0 mm 2 mps 723 mmHg 34%
    01:00 +13°C° 0 mm 2 mps 723 mmHg 35%
    02:00 +13°C° 0 mm 1 mps 722 mmHg 36%
    03:00 +12°C° 0 mm 1 mps 722 mmHg 37%
    04:00 +12°C° 0 mm 1 mps 722 mmHg 39%
    05:00 +12°C° 0 mm 1 mps 722 mmHg 39%
    06:00 +12°C° 0 mm 2 mps 723 mmHg 38%
    07:00 +12°C° 0 mm 2 mps 723 mmHg 38%
    08:00 +12°C° 0 mm 4 mps 723 mmHg 40%
    09:00 +13°C° 0 mm 6 mps 724 mmHg 42%
    10:00 +13°C° 0 mm 8 mps 724 mmHg 44%
    11:00 +13°C° 0 mm 9 mps 724 mmHg 41%
    12:00 +15°C° 0 mm 9 mps 723 mmHg 37%
    13:00 +16°C° 0 mm 10 mps 723 mmHg 34%
    14:00 +16°C° 0 mm 10 mps 723 mmHg 34%
    15:00 +16°C° 0 mm 10 mps 722 mmHg 35%
    16:00 +16°C° 0 mm 11 mps 722 mmHg 35%
    17:00 +13°C° 0 mm 11 mps 722 mmHg 39%
    18:00 +12°C° 0 mm 12 mps 723 mmHg 43%
    19:00 +10°C° 0 mm 12 mps 723 mmHg 47%
    20:00 +10°C° 0 mm 12 mps 724 mmHg 48%
    21:00 +9°C° 0 mm 13 mps 724 mmHg 50%
    22:00 +8°C° 0 mm 13 mps 724 mmHg 51%
    23:00 +8°C° 0 mm 13 mps 724 mmHg 52%

    Tomorrow, 19 February, Wednesday

    Time Temperature Precipitation Wind Pressure Humidity
    00:00 +6°C° 0 mm 14 mps 724 mmHg 54%
    01:00 +6°C° 0 mm 14 mps 724 mmHg 55%
    02:00 +5°C° 0 mm 14 mps 724 mmHg 56%
    03:00 +5°C° 0 mm 13 mps 723 mmHg 56%
    04:00 +4°C° 0 mm 13 mps 723 mmHg 56%
    05:00 +4°C° 0 mm 13 mps 723 mmHg 56%
    06:00 +4°C° 0 mm 12 mps 724 mmHg 56%
    07:00 +4°C° 0 mm 11 mps 724 mmHg 56%
    08:00 +6°C° 0 mm 11 mps 724 mmHg 50%
    09:00 +8°C° 0 mm 11 mps 724 mmHg 45%
    10:00 +9°C° 0 mm 11 mps 724 mmHg 39%
    11:00 +11°C° 0 mm 11 mps 723 mmHg 35%
    12:00 +12°C° 0 mm 11 mps 722 mmHg 30%
    13:00 +13°C° 0 mm 11 mps 721 mmHg 25%
    14:00 +13°C° 0 mm 10 mps 721 mmHg 25%
    15:00 +13°C° 0 mm 10 mps 721 mmHg 24%
    16:00 +13°C° 0 mm 10 mps 720 mmHg 24%
    17:00 +12°C° 0 mm 9 mps 720 mmHg 26%
    18:00 +11°C° 0 mm 9 mps 721 mmHg 29%
    19:00 +10°C° 0 mm 8 mps 721 mmHg 32%
    20:00 +10°C° 0 mm 8 mps 721 mmHg 32%
    21:00 +10°C° 0 mm 7 mps 721 mmHg 32%
    22:00 +9°C° 0 mm 7 mps 721 mmHg 32%
    23:00 +9°C° 0 mm 7 mps 721 mmHg 33%

    Day after tomorrow, 20 February, Thursday

    Time Temperature Precipitation Wind Pressure Humidity
    00:00 +8°C° 0 mm 7 mps 721 mmHg 34%
    01:00 +8°C° 0 mm 6 mps 721 mmHg 35%
    02:00 +7°C° 0 mm 6 mps 721 mmHg 38%
    03:00 +7°C° 0 mm 5 mps 720 mmHg 41%
    04:00 +6°C° 0 mm 4 mps 720 mmHg 43%
    05:00 +6°C° 0 mm 4 mps 720 mmHg 45%
    06:00 +7°C° 0 mm 3 mps 721 mmHg 46%
    07:00 +6°C° 0 mm 2 mps 721 mmHg 48%
    08:00 +8°C° 0 mm 2 mps 721 mmHg 43%
    09:00 +9°C° 0 mm 2 mps 721 mmHg 38%
    10:00 +12°C° 0 mm 2 mps 722 mmHg 34%
    11:00 +13°C° 0 mm 2 mps 721 mmHg 31%
    12:00 +14°C° 0 mm 2 mps 721 mmHg 28%
    13:00 +16°C° 0 mm 2 mps 720 mmHg 24%
    14:00 +16°C° 0 mm 2 mps 720 mmHg 23%
    15:00 +17°C° 0 mm 2 mps 720 mmHg 22%
    16:00 +17°C° 0 mm 3 mps 719 mmHg 21%
    17:00 +17°C° 0 mm 2 mps 720 mmHg 22%
    18:00 +17°C° 0 mm 2 mps 720 mmHg 24%
    19:00 +16°C° 0 mm 2 mps 720 mmHg 25%
    20:00 +16°C° 0 mm 2 mps 720 mmHg 26%
    21:00 +16°C° 0 mm 2 mps 720 mmHg 27%
    22:00 +15°C° 0 mm 1 mps 720 mmHg 28%
    23:00 +15°C° 0 mm 2 mps 720 mmHg 29%

    21 February, Friday

    Time Temperature Precipitation Wind Pressure Humidity
    00:00 +15°C° 0 mm 2 mps 720 mmHg 30%
    01:00 +15°C° 0 mm 2 mps 719 mmHg 31%
    02:00 +14°C° 0 mm 2 mps 719 mmHg 34%
    03:00 +13°C° 0 mm 3 mps 718 mmHg 37%
    04:00 +13°C° 0 mm 3 mps 718 mmHg 39%
    05:00 +12°C° 0 mm 3 mps 718 mmHg 41%
    06:00 +13°C° 0 mm 2 mps 718 mmHg 42%
    07:00 +13°C° 0 mm 2 mps 718 mmHg 43%
    08:00 +15°C° 0 mm 2 mps 719 mmHg 38%
    09:00 +16°C° 0 mm 2 mps 719 mmHg 33%
    10:00 +19°C° 0 mm 1 mps 719 mmHg 27%
    17:00 +24°C° 0 mm 3 mps 718 mmHg 21%
    18:00 +21°C° 0 mm 3 mps 718 mmHg 25%
    19:00 +20°C° 0 mm 3 mps 719 mmHg 29%
    20:00 +19°C° 0 mm 3 mps 719 mmHg 30%
    21:00 +19°C° 0 mm 3 mps 719 mmHg 31%
    22:00 +18°C° 0 mm 3 mps 719 mmHg 31%
    23:00 +18°C° 0 mm 3 mps 719 mmHg 32%

    22 February, Saturday

    Time Temperature Precipitation Wind Pressure Humidity
    00:00 +17°C° 0 mm 3 mps 719 mmHg 34%
    01:00 +17°C° 0 mm 3 mps 719 mmHg 35%
    02:00 +17°C° 0 mm 3 mps 719 mmHg 37%
    03:00 +16°C° 0 mm 3 mps 719 mmHg 40%
    04:00 +16°C° 0 mm 3 mps 719 mmHg 42%
    05:00 +14°C° 0 mm 3 mps 719 mmHg 43%
    06:00 +15°C° 0 mm 2 mps 720 mmHg 45%
    07:00 +15°C° 0 mm 2 mps 720 mmHg 46%
    08:00 +16°C° 0 mm 2 mps 721 mmHg 41%
    09:00 +18°C° 0 mm 2 mps 721 mmHg 37%
    10:00 +20°C° 0 mm 2 mps 722 mmHg 32%
    11:00 +21°C° 0 mm 2 mps 721 mmHg 30%
    12:00 +23°C° 0 mm 2 mps 720 mmHg 27%
    13:00 +24°C° 0 mm 1 mps 720 mmHg 24%
    14:00 +25°C° 0 mm 2 mps 720 mmHg 23%
    15:00 +26°C° 0 mm 2 mps 719 mmHg 23%
    16:00 +27°C° 0 mm 2 mps 719 mmHg 22%
    17:00 +25°C° 0 mm 2 mps 719 mmHg 24%
    18:00 +24°C° 0 mm 3 mps 719 mmHg 27%
    19:00 +22°C° 0 mm 3 mps 719 mmHg 29%
    20:00 +22°C° 0 mm 3 mps 719 mmHg 30%
    21:00 +22°C° 0 mm 3 mps 719 mmHg 30%
    22:00 +22°C° 0 mm 3 mps 719 mmHg 30%
    23:00 +21°C° 0 mm 3 mps 719 mmHg 32%

    23 February, Sunday

    Time Temperature Precipitation Wind Pressure Humidity
    00:00 +21°C° 0 mm 2 mps 718 mmHg 33%
    01:00 +20°C° 0 mm 2 mps 718 mmHg 34%
    02:00 +19°C° 0 mm 2 mps 718 mmHg 37%
    03:00 +19°C° 0 mm 2 mps 717 mmHg 39%
    04:00 +19°C° 0 mm 1 mps 717 mmHg 41%
    05:00 +19°C° 0 mm 1 mps 717 mmHg 42%
    06:00 +18°C° 0 mm 1 mps 718 mmHg 44%
    07:00 +18°C° 0 mm 1 mps 718 mmHg 45%
    08:00 +19°C° 0 mm 2 mps 718 mmHg 40%
    09:00 +20°C° 0 mm 2 mps 719 mmHg 36%
    10:00 +23°C° 0 mm 2 mps 719 mmHg 32%
    11:00 +24°C° 0 mm 2 mps 719 mmHg 30%
    12:00 +25°C° 0 mm 2 mps 719 mmHg 28%
    13:00 +26°C° 0 mm 2 mps 719 mmHg 26%
    14:00 +27°C° 0 mm 1 mps 718 mmHg 26%
    15:00 +27°C° 0 mm 1 mps 718 mmHg 25%
    16:00 +27°C° 0 mm 1 mps 717 mmHg 25%
    17:00 +26°C° 0 mm 1 mps 717 mmHg 27%
    18:00 +25°C° 0 mm 2 mps 717 mmHg 29%
    19:00 +24°C° 0 mm 2 mps 718 mmHg 31%
    20:00 +24°C° 0 mm 2 mps 718 mmHg 32%
    21:00 +23°C° 0 mm 2 mps 718 mmHg 34%
    22:00 +22°C° 0 mm 1 mps 718 mmHg 35%
    23:00 +22°C° 0 mm 1 mps 718 mmHg 36%
    Show more